Simultaneous Nadir Overpasses (SNOs) Predictions

Prediction of SNOs between METOP-B and TERRA Satellite Orbit:

Table of predicted SNOs for the next 14.0 days since TLE Epoch: 4/23/2016
Index Date (METOP-B) Time (METOP-B) Lat,Lon (METOP-B) SZA (METOP-B ) Date (TERRA) Time (TERRA) Lat,Lon (TERRA) SZA (TERRA ) Distance(km) Time Diff (sec)
1 04/25/2016 07:11:20 81.32, 119.72 70.91 04/25/2016 07:11:57 81.32, 119.76 70.94 0.85 37
2 04/25/2016 08:02:00 -81.33, -72.47 109.04 04/25/2016 08:01:24 -81.32, -72.61 109.08 2.32 36
3 04/28/2016 02:45:43 81.32,-174.05 70.01 04/28/2016 02:46:16 81.32,-173.86 70.05 3.11 33
4 04/28/2016 03:36:23 -81.32, -6.22 109.94 04/28/2016 03:35:43 -81.32, -6.22 109.96 0.34 40
5 04/30/2016 22:20:04 81.32,-107.44 69.19 04/30/2016 22:20:34 81.32,-107.56 69.19 2.01 30
6 04/
